FLOCK 4Q 10

导读

FLOCK 4Q 10是美国Planet公司研制的一颗SuperDove系列遥感立方体卫星,于北京时间2023年11月11日发射入轨,属于FLOCK 4卫星批次。 该卫星为3U立方星构型,重约5kg,隶属于PlanetScope鸽群遥感星座,配备8波段光学成像载荷,可提供3米分辨率对地观测影像。它将补充星座在轨能力,助力实现每日全球陆地成像,服务农业监测、自然资源管理、城市规划等多领域应用,为全球用户提供高频次、高质量地球观测数据。

基本信息
目录编号:
58324
目录名称:
FLOCK 4Q 10
国际标识:
2023-174BW
轨道中心:
EARTH
卫星名称:
FLOCK 4Q 10
卫星全名:
--
卫星状态:
已陨落 最后检测时间 2025-05-13
发射日期:
2023-11-11 UTC
国别 :
美国 (US)
星等 :
--
轨道信息
数据来源 国际轨道数据
星历时间: 2025-05-08T06:36:59+0800
轨道信息已过期399天
半长轴: 6560.36km
偏心率: 0.0015651
轨道倾角: 97.382°
近地点辐角 248.353°
升交点赤经 212.236°
平近点角 111.610°
近地点: 171.957km
远地点: 192.493km
周期: 88.136分钟
每日圈数: 16.338467
详细信息
使用方式:
暂无